SCP
0 0 0 0 0 0 0 0 0 0 0 0 0 0 0 0 0 0 0 0 0 0 1 1 0 0 0 0 0 0 0 0 0 0 0 0 0 0 0 0 0 0 0 0
0 0 0 0 0 0 0 0 0 0 0 0 0 0 0 0 0 0 0 0 0 1 1 1 0 0 0 0 0 0 0 0 0 0 0 0 0 0 0 0 0 0 0 0
0 0 0 0 0 0 0 0 0 0 0 0 0 0 0 0 0 0 0 0 0 1 1 1 0 0 0 0 0 0 0 0 0 0 0 0 0 0 0 0 0 0 0 0
0 0 0 0 0 0 0 0 0 0 0 0 0 0 0 0 0 0 0 0 0 0 0 0 0 0 0 0 0 0 0 0 0 0 0 0 0 0 0 0 0 0 0 0
0 0 0 0 0 0 0 0 0 0 0 0 0 0 0 0 0 0 0 0 0 0 0 0 0 0 0 0 0 0 0 0 0 0 0 0 0 0 0 0 0 0 0 0
0 0 0 0 0 0 0 0 0 0 0 0 0 0 0 0 0 0 0 0 0 0 0 0 0 0 0 0 0 0 0 0 0 0 0 0 0 0 0 0 0 0 0 0
0 0 0 0 0 0 0 0 0 0 0 0 0 0 0 0 0 0 0 0 0 0 0 0 0 0 0 0 0 0 0 0 0 0 0 0 0 0 0 0 0 0 0 0
0 0 0 0 0 0 0 0 0 0 0 0 0 0 0 0 0 0 0 0 0 0 0 0 0 0 0 0 0 0 0 0 0 0 0 0 0 0 0 0 0 0 0 0
0 0 0 0 0 0 0 0 0 0 0 0 0 0 0 0 0 0 0 0 0 0 0 0 0 0 0 0 0 0 0 0 0 0 0 0 0 0 0 0 0 0 0 0
0 0 0 0 0 0 0 0 0 0 0 0 0 0 0 0 0 0 0 0 0 0 0 0 0 0 1 1 1 1 0 0 0 0 0 0 0 0 0 0 0 0 0 0
0 0 0 0 0 0 0 0 0 0 0 0 0 0 0 0 0 0 0 0 0 0 0 0 0 0 1 1 1 1 0 0 0 0 0 0 0 0 0 0 0 0 0 0
0 0 0 0 0 0 0 0 0 0 0 0 0 0 0 0 0 0 0 0 0 0 0 0 0 0 0 1 1 0 0 0 0 0 0 0 0 0 0 0 0 0 0 0
0 0 0 0 0 0 0 0 0 0 0 0 0 0 0 0 0 0 0 0 0 0 0 0 0 0 0 0 0 0 0 0 0 0 0 0 0 0 0 0 0 0 0 0
0 0 0 0 0 0 0 0 0 0 0 0 0 0 0 0 0 0 0 0 0 0 0 0 0 0 0 0 0 0 0 0 0 0 0 0 0 0 0 0 0 0 0 0
0 0 0 0 0 0 0 0 0 0 0 0 0 0 0 0 0 0 0 0 0 0 0 0 0 1 0 0 0 0 0 0 0 0 0 0 0 0 0 0 0 0 0 0
0 0 0 0 0 0 0 0 0 0 0 0 0 0 0 0 0 0 0 0 0 0 0 0 1 1 1 0 0 0 0 0 0 0 0 0 0 0 0 0 0 0 0 0
0 0 0 0 0 0 0 0 0 0 0 0 0 0 0 0 0 0 0 0 0 0 0 0 0 1 1 0 0 0 0 0 0 0 0 0 0 0 0 0 0 0 0 0
0 0 0 0 0 0 0 0 0 0 0 0 0 0 0 0 0 0 0 0 0 0 0 0 0 0 0 0 0 0 0 0 0 0 0 0 0 0 0 0 0 0 0 0
0 0 0 0 0 0 0 0 0 0 0 0 0 0 0 0 0 0 0 0 0 0 0 0 0 0 0 0 0 0 0 0 0 0 0 0 0 0 0 0 0 0 0 0
0 0 0 0 0 0 0 0 0 0 0 0 0 0 0 0 0 0 0 0 0 0 0 0 0 0 0 0 0 0 0 0 0 0 0 0 0 0 0 0 0 0 0 0
0 0 0 0 0 0 0 0 0 0 0 0 0 0 0 0 0 0 0 0 0 0 0 0 0 0 0 0 0 0 0 0 0 0 0 0 0 0 0 0 0 0 0 0
0 0 0 0 0 0 0 0 0 0 0 0 0 0 0 0 0 0 0 0 0 0 0 0 0 0 0 0 0 0 0 0 0 0 0 0 0 0 0 0 0 0 0 0
0 0 0 0 0 0 0 0 0 0 0 0 0 0 0 0 0 0 0 0 0 0 0 0 0 0 0 0 0 0 0 0 0 0 0 0 0 0 0 0 0 0 0 0
0 0 0 0 0 0 0 0 0 0 0 0 0 0 0 0 0 0 0 0 0 0 0 0 0 0 0 0 0 0 0 0 0 0 0 0 0 0 0 0 0 0 0 0
0 0 0 0 0 0 0 0 0 0 0 0 0 0 0 0 0 0 0 0 0 0 0 0 0 0 0 0 0 0 0 0 0 0 0 0 0 0 0 0 0 0 0 0
0 0 0 0 0 0 0 0 0 0 0 0 0 0 0 0 0 0 0 0 0 0 0 0 0 0 0 0 0 0 0 0 0 0 0 0 0 0 0 0 0 0 0 0
Wind_Speed
1 2 3 6 5 2 2 2 4 7 6 3 7 10 13 7 4 6 7 7 7 5 1 3 4 3 1 1 3 4 4 4 5 3 3 3 3 3 3 3 4 6 7 7
2 5 6 4 4 3 2 3 5 9 7 4 6 8 9 5 5 7 9 11 7 3 1 3 4 3 0 2 3 4 4 5 5 3 3 2 2 2 2 2 3 5 6 7
6 5 3 4 5 5 4 4 5 7 7 3 2 6 6 5 3 2 4 7 7 7 6 4 3 1 1 3 4 4 4 5 5 5 3 2 2 2 2 3 3 5 6 7
5 5 4 7 7 5 5 5 5 7 4 5 1 4 7 5 6 3 4 7 8 7 6 5 5 4 3 2 3 4 5 5 5 6 5 4 4 3 4 3 3 4 5 6
5 3 3 5 6 3 5 5 4 5 5 3 2 3 8 4 6 6 6 7 8 8 8 7 7 6 4 3 4 4 5 5 5 5 5 4 3 3 3 3 5 4 4 5
6 4 4 6 4 2 3 2 3 4 3 3 5 4 7 5 7 4 5 7 8 8 7 6 6 4 3 2 3 3 4 3 4 4 4 4 5 4 4 4 6 5 4 5
7 5 5 4 3 4 3 2 4 5 3 5 4 3 9 7 6 6 7 8 8 8 7 7 7 7 6 5 4 3 3 2 3 5 5 5 6 6 6 5 6 7 5 5
4 8 4 2 6 7 5 9 7 5 4 5 3 5 8 5 4 3 4 5 7 8 8 9 10 8 7 6 5 4 4 3 3 4 4 4 5 4 3 4 5 6 5 5
3 6 6 4 4 5 3 5 7 6 3 2 5 7 10 3 1 1 3 4 8 10 10 10 8 7 7 6 6 6 5 4 4 4 4 4 5 5 5 5 4 4 4 6
3 6 8 8 3 3 2 4 4 5 6 4 5 5 5 4 4 3 3 5 8 8 8 8 6 6 6 7 6 5 5 5 4 3 3 3 4 4 4 5 5 5 5 5
2 3 7 5 4 2 2 1 3 3 4 5 3 7 7 5 5 5 6 6 7 8 8 8 6 5 6 6 6 6 6 5 4 4 3 3 3 4 4 4 5 5 5 5
3 3 2 6 5 2 2 2 4 4 3 3 4 9 7 4 4 4 5 6 7 7 7 7 6 6 6 7 6 6 6 6 6 5 4 4 4 5 5 5 5 4 5 6
3 3 3 8 5 3 2 1 2 3 4 4 5 9 5 3 3 3 5 6 7 7 8 6 7 7 7 7 6 6 7 7 6 5 6 5 6 6 7 6 5 4 3 3
2 3 5 6 6 2 4 3 4 5 4 5 8 10 9 8 8 7 6 8 7 7 6 6 7 8 7 7 6 6 7 6 5 5 5 6 7 7 8 7 6 5 4 4
2 3 4 7 7 4 7 11 6 8 8 9 10 11 13 11 9 8 7 7 7 7 6 8 9 8 7 6 6 6 6 5 5 5 6 7 6 6 6 7 7 7 7 7
0 2 2 5 5 5 9 13 12 10 10 10 12 16 12 12 8 8 10 9 9 9 8 7 7 7 7 7 6 6 6 6 6 6 7 6 5 5 6 6 7 7 7 6
3 3 2 4 5 6 8 9 7 6 6 7 13 18 12 9 10 11 10 9 9 9 6 5 6 6 6 6 6 7 7 5 6 7 6 6 6 6 6 6 6 7 7 7
6 4 3 2 2 6 8 2 2 5 8 7 12 16 13 11 11 8 7 8 8 6 3 5 5 4 3 2 3 5 4 5 6 7 7 6 6 7 6 6 7 7 5 5
6 6 4 4 4 7 6 3 2 3 6 4 15 18 10 5 3 5 4 3 2 1 4 5 6 6 5 4 2 2 2 3 4 5 6 6 6 6 6 7 6 5 5 4
3 3 3 4 4 3 3 9 8 1 6 16 20 18 10 0 0 5 1 5 7 8 7 7 6 7 7 5 6 7 4 2 1 3 5 5 6 6 7 6 5 4 4 5
2 1 4 4 3 2 6 13 8 8 10 19 17 15 9 4 4 2 4 6 7 7 7 6 7 7 5 4 6 7 5 4 3 3 2 2 3 5 5 4 5 6 6 5
5 4 2 1 2 2 8 9 7 5 9 11 12 14 10 6 3 3 5 6 7 7 6 6 6 6 4 4 5 5 3 3 3 3 3 2 1 1 1 3 4 6 6 5
5 5 6 5 2 4 6 4 3 5 9 9 12 14 12 6 3 2 3 4 5 5 5 4 6 5 3 3 3 3 1 2 3 4 3 2 2 2 3 3 4 3 3 3
3 3 5 8 7 13 10 3 6 7 9 10 10 11 11 7 2 2 4 4 4 4 4 4 5 4 2 1 0 1 1 1 2 3 2 1 2 3 4 3 2 2 2 2
5 5 5 8 11 11 6 7 9 12 13 12 12 10 9 7 3 5 5 5 4 4 3 4 4 3 2 2 2 2 2 2 2 2 2 2 2 3 3 3 2 1 1 2
3 3 5 7 8 11 17 14 11 13 14 13 14 15 13 7 4 6 6 5 5 4 4 3 3 3 2 2 2 2 3 4 3 2 1 1 1 2 3 3 4 7 5 5
Wind_Direction
6 81 218 224 216 219 190 206 258 266 262 241 246 257 271 286 215 205 190 193 202 197 293 352 2 350 297 178 174 167 151 133 134 141 163 179 204 202 189 204 210 188 181 183
2 260 241 226 223 247 257 279 281 287 283 236 244 262 271 280 231 210 195 194 190 174 255 316 344 0 248 192 179 161 149 146 156 151 146 162 157 170 165 170 212 209 192 188
218 261 276 234 234 231 242 230 255 269 305 334 266 295 296 293 289 285 198 175 169 183 201 230 269 287 211 199 191 176 155 148 153 143 120 104 93 94 134 176 196 214 200 191
240 260 257 250 246 221 260 256 262 273 287 284 273 274 282 288 299 278 182 164 175 188 196 208 223 234 217 190 157 158 158 156 157 155 164 167 169 176 182 176 183 194 200 195
246 235 226 236 234 212 257 309 307 271 240 260 284 232 279 300 278 255 195 183 185 191 194 200 211 222 219 180 161 163 162 162 164 168 166 161 163 169 160 157 157 155 161 160
244 237 218 220 234 215 266 345 20 39 74 267 244 203 279 251 236 249 195 192 190 191 200 209 214 216 223 206 180 162 158 153 150 161 166 178 186 186 179 172 163 158 150 138
317 296 247 207 271 294 178 122 352 342 359 263 288 218 252 257 246 224 200 198 189 191 200 210 210 207 210 208 203 187 178 168 153 165 182 196 196 196 197 182 172 166 161 150
319 305 295 214 201 229 214 170 183 220 232 285 310 244 258 274 296 217 189 180 182 199 207 212 210 205 203 203 200 199 203 194 171 183 194 193 198 200 200 182 171 170 161 146
239 278 298 295 249 182 184 204 186 153 175 256 285 288 300 291 338 83 135 165 200 213 216 217 212 203 194 195 202 203 208 206 186 192 188 183 193 198 195 179 169 165 155 149
208 269 298 308 4 40 166 154 105 136 161 229 283 281 262 285 265 265 233 222 230 232 233 231 218 206 195 192 193 194 203 211 199 193 193 183 194 198 187 172 176 175 166 156
137 209 308 355 37 341 348 66 103 114 152 160 237 266 231 241 262 258 262 264 258 250 242 238 225 205 195 185 182 186 192 195 189 193 202 189 194 196 184 181 186 180 171 168
165 128 286 280 270 213 191 184 158 161 219 192 196 262 265 250 264 250 268 277 270 263 250 238 217 194 192 193 189 186 188 195 193 183 193 201 187 185 184 185 186 178 175 179
165 114 2 338 342 357 42 138 160 136 141 185 199 260 290 301 296 276 272 278 273 264 254 224 196 192 197 198 194 192 195 204 195 177 188 199 192 189 192 191 187 183 179 185
146 161 178 221 249 269 297 261 178 151 179 219 225 249 281 288 286 280 262 262 269 269 255 218 199 197 197 195 194 198 207 204 193 185 197 205 203 199 196 190 186 183 179 183
93 241 244 251 264 265 262 269 236 205 211 214 236 238 247 251 254 263 268 273 283 282 255 217 200 196 194 192 196 201 209 200 188 195 214 223 208 196 190 187 188 185 187 192
164 256 288 292 292 292 275 269 260 242 237 242 257 263 250 249 254 264 268 271 276 275 259 223 195 186 192 196 199 203 208 197 188 205 221 225 204 191 190 186 179 181 191 195
230 215 232 270 307 334 281 256 245 242 243 241 263 271 269 255 247 247 256 263 260 267 260 208 185 184 186 190 195 210 213 185 192 216 224 214 200 197 195 183 177 185 189 188
205 186 203 253 329 253 251 269 255 269 270 267 283 287 276 250 250 251 245 245 255 259 226 174 152 136 129 158 201 218 211 195 201 215 225 220 208 208 197 188 193 194 186 188
196 176 187 183 219 275 314 360 330 312 293 4 337 328 310 257 258 281 246 219 216 126 113 104 102 102 89 71 74 132 190 215 221 229 234 234 225 218 203 200 201 190 178 175
106 155 190 182 186 235 327 318 314 255 317 349 342 335 324 283 251 282 35 93 93 91 93 97 96 90 79 64 74 79 73 75 284 271 256 244 233 226 218 201 180 173 167 163
342 221 216 202 203 283 340 327 2 45 328 325 327 327 319 275 253 297 83 89 95 93 88 87 85 82 83 89 87 80 70 53 359 339 327 278 239 231 225 190 161 158 158 154
339 327 302 222 170 89 4 0 25 333 302 310 326 336 328 318 354 57 81 98 99 95 87 87 91 87 72 67 82 78 51 15 23 37 39 30 10 258 199 159 147 152 153 143
4 7 325 310 300 354 331 324 15 328 319 324 329 336 339 338 349 64 103 106 106 110 107 100 105 94 64 49 81 105 353 5 35 48 47 45 45 37 71 110 124 129 135 130
314 351 314 306 309 316 304 311 327 329 324 318 316 322 343 329 284 180 157 147 139 128 125 121 118 118 129 161 150 222 255 69 57 45 33 46 68 65 61 76 113 142 172 157
278 295 277 271 286 297 287 327 330 327 328 326 322 322 330 328 269 208 195 176 162 145 140 137 143 159 191 224 252 239 195 151 105 74 52 45 67 92 90 80 79 155 172 161
262 269 289 287 307 304 301 311 322 318 321 321 321 325 330 324 259 207 202 185 164 156 152 155 176 203 230 250 278 238 180 156 132 107 71 56 79 96 107 106 89 60 64 64